Location: Prague
(50.0830°N, 14.4670°E)
Time: 18:20:27
(UTC+02:00)

Tiangong - Pass Details

Date: 28 September 2021
Orbit: 382 x 385 km, 41.5° (Epoch: 18 October)

Event Time Altitude Azimuth Distance (km) Brightness Sun altitude
Exits shadow 05:40:11 - 195° (SSW) 1,606 3.9 -13.2°
Reaches altitude 10° 05:41:26 10° 176° (S) 1,392 3.8 -13.0°
Maximum altitude 05:42:14 11° 161° (SSE) 1,350 3.9 -12.8°
Drops below altitude 10° 05:43:02 10° 146° (SE) 1,393 4.2 -12.7°
Sets 05:46:28 0° 106° (ESE) 2,248 6.2 -12.2°
